カタログに戻る

STARLINK-4157

運用中通信VLEO
NORAD 53035·PAYLOAD·🇺🇸 United States

打ち上げ Jul 7, 2022 から Cape Canaveral Space Force Station

Loading…

次のパス (今後24時間)

TLE

最新Source: CelesTrak SupGP

元期: Sep 14, 2026, 22:10 UTC

1 53035C 22076BB  26257.92409722  .00736520  00000+0  22302-1 0  2579
2 53035  53.1604 300.9752 0001173  91.1390 338.1444 15.33248866    12

AllMySatでSTARLINK-4157をリアルタイム追跡

Download on the App Store